QPF
0.02 0.03 0.05 0.08 0.10 0.13 0.15 0.12 0.10 0.11 0.09 0.07 0.05 0.06 0.06 0.04 0.04 0.03 0.02 0.03 0.04 0.05 0.05 0.05 0.06 0.05 0.06 0.07 0.08 0.10 0.09 0.10 0.08 0.09 0.09 0.08 0.05 0.05 0.05 0.04 0.03 0.03 0.03
0.01 0.03 0.04 0.05 0.08 0.10 0.11 0.11 0.12 0.13 0.11 0.11 0.08 0.07 0.06 0.04 0.04 0.04 0.03 0.03 0.03 0.03 0.03 0.05 0.05 0.06 0.08 0.09 0.11 0.12 0.11 0.10 0.08 0.09 0.11 0.12 0.11 0.06 0.04 0.05 0.04 0.04 0.06
0.01 0.02 0.02 0.04 0.08 0.08 0.07 0.07 0.08 0.09 0.09 0.08 0.07 0.05 0.04 0.03 0.03 0.04 0.04 0.03 0.03 0.03 0.03 0.05 0.06 0.08 0.08 0.08 0.10 0.12 0.11 0.10 0.09 0.12 0.14 0.15 0.15 0.10 0.06 0.05 0.05 0.05 0.06
0.01 0.02 0.02 0.04 0.06 0.06 0.06 0.06 0.07 0.06 0.06 0.06 0.05 0.04 0.04 0.04 0.04 0.04 0.05 0.05 0.04 0.04 0.04 0.04 0.05 0.08 0.08 0.09 0.09 0.10 0.10 0.10 0.08 0.08 0.10 0.09 0.10 0.10 0.09 0.07 0.07 0.07 0.08
0.01 0.02 0.02 0.03 0.03 0.05 0.05 0.06 0.05 0.05 0.04 0.04 0.04 0.06 0.07 0.06 0.04 0.04 0.04 0.05 0.04 0.04 0.03 0.03 0.05 0.06 0.08 0.08 0.08 0.09 0.09 0.09 0.08 0.07 0.07 0.08 0.08 0.08 0.12 0.10 0.08 0.07 0.07
0.02 0.02 0.03 0.03 0.03 0.04 0.05 0.05 0.04 0.04 0.05 0.05 0.05 0.06 0.08 0.08 0.05 0.04 0.04 0.05 0.05 0.04 0.04 0.04 0.05 0.06 0.07 0.07 0.08 0.09 0.10 0.11 0.10 0.09 0.08 0.05 0.05 0.06 0.07 0.09 0.07 0.06 0.04
0.01 0.02 0.02 0.02 0.03 0.04 0.04 0.04 0.04 0.04 0.05 0.05 0.06 0.07 0.09 0.10 0.09 0.06 0.06 0.07 0.05 0.05 0.05 0.04 0.05 0.06 0.06 0.06 0.07 0.07 0.09 0.08 0.08 0.07 0.07 0.06 0.04 0.03 0.04 0.06 0.07 0.06 0.05
0.01 0.02 0.03 0.03 0.02 0.03 0.04 0.04 0.04 0.07 0.07 0.06 0.07 0.08 0.09 0.11 0.10 0.10 0.08 0.06 0.05 0.05 0.05 0.06 0.06 0.05 0.05 0.05 0.06 0.06 0.05 0.04 0.03 0.04 0.05 0.05 0.04 0.03 0.04 0.05 0.08 0.07 0.06
0.02 0.03 0.03 0.03 0.02 0.03 0.03 0.03 0.05 0.07 0.08 0.07 0.08 0.09 0.10 0.10 0.10 0.10 0.08 0.06 0.05 0.05 0.07 0.08 0.08 0.07 0.06 0.05 0.05 0.05 0.04 0.03 0.03 0.04 0.04 0.03 0.03 0.02 0.03 0.03 0.05 0.07 0.06
0.02 0.03 0.02 0.02 0.02 0.02 0.03 0.04 0.05 0.06 0.07 0.10 0.08 0.07 0.09 0.09 0.09 0.08 0.08 0.08 0.06 0.06 0.08 0.07 0.05 0.05 0.05 0.04 0.05 0.05 0.04 0.05 0.04 0.04 0.03 0.02 0.02 0.02 0.02 0.02 0.03 0.04 0.05
0.04 0.08 0.07 0.03 0.02 0.03 0.04 0.04 0.04 0.05 0.06 0.10 0.10 0.06 0.08 0.08 0.07 0.07 0.07 0.08 0.07 0.08 0.07 0.04 0.03 0.03 0.04 0.05 0.05 0.05 0.04 0.03 0.04 0.04 0.03 0.02 0.02 0.03 0.02 0.03 0.03 0.03 0.04
0.04 0.06 0.07 0.04 0.04 0.05 0.05 0.04 0.03 0.03 0.04 0.06 0.07 0.06 0.06 0.07 0.06 0.07 0.07 0.07 0.07 0.05 0.04 0.03 0.03 0.03 0.03 0.04 0.04 0.04 0.03 0.03 0.03 0.04 0.04 0.03 0.03 0.03 0.03 0.04 0.04 0.04 0.05
0.04 0.03 0.03 0.04 0.04 0.05 0.04 0.03 0.02 0.02 0.03 0.04 0.04 0.04 0.05 0.05 0.05 0.06 0.06 0.05 0.03 0.03 0.04 0.03 0.03 0.03 0.03 0.03 0.03 0.03 0.03 0.02 0.02 0.02 0.03 0.03 0.03 0.03 0.03 0.03 0.04 0.05 0.05
0.04 0.03 0.03 0.03 0.04 0.04 0.03 0.03 0.03 0.03 0.03 0.03 0.03 0.04 0.04 0.04 0.03 0.04 0.04 0.04 0.03 0.04 0.04 0.03 0.03 0.03 0.04 0.04 0.03 0.03 0.03 0.02 0.02 0.02 0.02 0.02 0.02 0.02 0.02 0.03 0.04 0.06 0.06
0.03 0.03 0.03 0.03 0.03 0.03 0.03 0.02 0.02 0.01 0.02 0.02 0.02 0.03 0.03 0.03 0.04 0.04 0.04 0.04 0.04 0.04 0.04 0.04 0.04 0.04 0.04 0.04 0.04 0.03 0.02 0.02 0.02 0.02 0.02 0.01 0.02 0.02 0.02 0.03 0.04 0.05 0.05
0.03 0.03 0.03 0.03 0.02 0.02 0.02 0.02 0.01 0.02 0.02 0.02 0.02 0.03 0.04 0.04 0.05 0.05 0.05 0.06 0.05 0.05 0.04 0.04 0.05 0.05 0.03 0.03 0.02 0.02 0.03 0.03 0.02 0.02 0.02 0.02 0.02 0.02 0.02 0.02 0.03 0.04 0.06
0.02 0.02 0.02 0.02 0.02 0.03 0.03 0.02 0.03 0.04 0.04 0.03 0.02 0.04 0.06 0.06 0.07 0.07 0.06 0.08 0.07 0.06 0.05 0.04 0.05 0.05 0.05 0.02 0.01 0.02 0.04 0.04 0.03 0.03 0.03 0.01 0.01 0.02 0.02 0.02 0.02 0.03 0.05
0.03 0.02 0.02 0.03 0.04 0.04 0.03 0.02 0.03 0.03 0.03 0.02 0.03 0.05 0.07 0.07 0.07 0.07 0.08 0.08 0.07 0.05 0.05 0.05 0.06 0.05 0.04 0.02 0.01 0.01 0.03 0.04 0.04 0.04 0.03 0.03 0.02 0.02 0.02 0.02 0.03 0.03 0.04
0.04 0.02 0.02 0.02 0.03 0.03 0.03 0.02 0.03 0.04 0.04 0.04 0.04 0.05 0.06 0.06 0.07 0.07 0.07 0.06 0.06 0.05 0.05 0.06 0.07 0.06 0.04 0.02 0.02 0.02 0.02 0.03 0.04 0.04 0.03 0.03 0.02 0.02 0.02 0.02 0.03 0.04 0.04
0.03 0.02 0.03 0.02 0.02 0.02 0.03 0.03 0.04 0.05 0.03 0.03 0.04 0.04 0.04 0.03 0.05 0.06 0.05 0.04 0.05 0.05 0.05 0.07 0.08 0.06 0.05 0.03 0.02 0.02 0.02 0.02 0.02 0.02 0.02 0.02 0.01 0.02 0.02 0.02 0.03 0.04 0.05
0.02 0.02 0.02 0.03 0.02 0.02 0.03 0.04 0.05 0.04 0.02 0.02 0.02 0.02 0.02 0.02 0.02 0.03 0.03 0.03 0.03 0.04 0.05 0.05 0.06 0.04 0.03 0.03 0.03 0.02 0.02 0.02 0.02 0.01 0.01 0.01 0.01 0.02 0.02 0.03 0.04 0.05 0.07
0.02 0.02 0.03 0.03 0.04 0.04 0.03 0.03 0.03 0.02 0.01 0.01 0.01 0.01 0.01 0.01 0.01 0.02 0.02 0.03 0.03 0.02 0.04 0.04 0.03 0.02 0.02 0.03 0.03 0.03 0.03 0.03 0.02 0.03 0.03 0.02 0.02 0.02 0.02 0.03 0.04 0.05 0.06
0.02 0.02 0.02 0.02 0.03 0.02 0.02 0.02 0.02 0.02 0.01 0.01 0.01 0.01 0.01 0.01 0.01 0.02 0.02 0.03 0.02 0.02 0.03 0.03 0.02 0.01 0.01 0.02 0.02 0.03 0.04 0.04 0.04 0.04 0.05 0.04 0.03 0.03 0.03 0.03 0.03 0.04 0.05
0.02 0.03 0.02 0.02 0.03 0.02 0.02 0.02 0.02 0.02 0.02 0.02 0.01 0.01 0.02 0.02 0.02 0.02 0.02 0.02 0.02 0.03 0.03 0.03 0.02 0.01 0.01 0.01 0.01 0.02 0.04 0.05 0.05 0.05 0.07 0.07 0.05 0.04 0.04 0.04 0.04 0.05 0.05
0.03 0.04 0.03 0.03 0.03 0.02 0.02 0.02 0.02 0.02 0.02 0.02 0.02 0.02 0.02 0.02 0.02 0.02 0.01 0.01 0.02 0.02 0.02 0.01 0.01 0.01 0.02 0.02 0.03 0.03 0.04 0.05 0.06 0.07 0.08 0.09 0.06 0.04 0.04 0.04 0.04 0.04 0.05
0.04 0.05 0.03 0.03 0.03 0.01 0.01 0.02 0.02 0.02 0.02 0.02 0.02 0.01 0.01 0.01 0.01 0.01 0.01 0.01 0.02 0.01 0.01 0.01 0.01 0.01 0.02 0.02 0.03 0.04 0.05 0.06 0.07 0.06 0.07 0.09 0.07 0.05 0.04 0.04 0.04 0.04 0.04
MSLP
1011.19 1011.58 1011.94 1012.24 1012.46 1012.60 1012.66 1012.63 1012.53 1012.37 1012.18 1011.96 1011.75 1011.53 1011.34 1011.17 1011.02 1010.88 1010.75 1010.62 1010.48 1010.36 1010.24 1010.17 1010.15 1010.21 1010.36 1010.59 1010.91 1011.27 1011.65 1012.01 1012.31 1012.52 1012.63 1012.63 1012.53 1012.36 1012.16 1011.95 1011.76 1011.62 1011.54
1011.00 1011.43 1011.81 1012.12 1012.34 1012.46 1012.50 1012.47 1012.39 1012.28 1012.14 1011.99 1011.84 1011.68 1011.51 1011.34 1011.15 1010.96 1010.77 1010.57 1010.39 1010.23 1010.11 1010.04 1010.04 1010.11 1010.27 1010.51 1010.82 1011.16 1011.53 1011.88 1012.19 1012.43 1012.59 1012.65 1012.62 1012.52 1012.37 1012.19 1012.00 1011.85 1011.73
1010.79 1011.26 1011.66 1011.96 1012.16 1012.27 1012.29 1012.26 1012.20 1012.12 1012.04 1011.96 1011.87 1011.76 1011.62 1011.45 1011.25 1011.02 1010.79 1010.55 1010.34 1010.17 1010.05 1009.99 1010.01 1010.10 1010.26 1010.49 1010.77 1011.09 1011.42 1011.76 1012.07 1012.34 1012.55 1012.68 1012.74 1012.72 1012.63 1012.49 1012.32 1012.14 1011.98
1010.63 1011.12 1011.52 1011.82 1011.99 1012.07 1012.07 1012.02 1011.96 1011.91 1011.88 1011.85 1011.81 1011.75 1011.65 1011.49 1011.30 1011.06 1010.81 1010.57 1010.35 1010.19 1010.09 1010.06 1010.10 1010.20 1010.36 1010.56 1010.81 1011.08 1011.38 1011.69 1012.00 1012.29 1012.54 1012.74 1012.88 1012.94 1012.92 1012.83 1012.67 1012.48 1012.27
1010.55 1011.04 1011.44 1011.71 1011.86 1011.90 1011.86 1011.79 1011.73 1011.68 1011.67 1011.67 1011.67 1011.65 1011.58 1011.46 1011.28 1011.07 1010.83 1010.61 1010.42 1010.29 1010.23 1010.23 1010.29 1010.40 1010.55 1010.73 1010.93 1011.16 1011.40 1011.68 1011.97 1012.27 1012.56 1012.82 1013.03 1013.16 1013.20 1013.15 1013.01 1012.80 1012.54
1010.56 1011.04 1011.42 1011.67 1011.78 1011.78 1011.70 1011.59 1011.50 1011.44 1011.42 1011.43 1011.45 1011.46 1011.42 1011.34 1011.20 1011.02 1010.83 1010.65 1010.52 1010.44 1010.42 1010.47 1010.55 1010.67 1010.81 1010.95 1011.10 1011.27 1011.46 1011.69 1011.96 1012.25 1012.57 1012.87 1013.13 1013.32 1013.42 1013.40 1013.27 1013.05 1012.76
1010.65 1011.11 1011.46 1011.67 1011.75 1011.70 1011.58 1011.43 1011.29 1011.20 1011.16 1011.16 1011.18 1011.20 1011.18 1011.13 1011.03 1010.91 1010.77 1010.66 1010.59 1010.57 1010.61 1010.69 1010.80 1010.93 1011.05 1011.16 1011.26 1011.37 1011.50 1011.68 1011.91 1012.19 1012.50 1012.83 1013.12 1013.36 1013.49 1013.51 1013.41 1013.19 1012.88
1010.76 1011.19 1011.52 1011.70 1011.74 1011.67 1011.50 1011.31 1011.12 1010.99 1010.91 1010.88 1010.88 1010.89 1010.89 1010.86 1010.80 1010.73 1010.65 1010.60 1010.59 1010.63 1010.72 1010.84 1010.98 1011.11 1011.21 1011.29 1011.35 1011.40 1011.48 1011.60 1011.79 1012.04 1012.34 1012.66 1012.97 1013.23 1013.40 1013.46 1013.38 1013.19 1012.90
1010.84 1011.25 1011.56 1011.73 1011.75 1011.65 1011.46 1011.23 1011.01 1010.83 1010.70 1010.63 1010.61 1010.60 1010.60 1010.58 1010.54 1010.50 1010.47 1010.47 1010.51 1010.60 1010.72 1010.88 1011.03 1011.16 1011.26 1011.32 1011.34 1011.35 1011.38 1011.46 1011.59 1011.80 1012.07 1012.37 1012.68 1012.96 1013.15 1013.24 1013.22 1013.07 1012.82
1010.86 1011.25 1011.55 1011.72 1011.75 1011.65 1011.45 1011.21 1010.96 1010.75 1010.58 1010.47 1010.41 1010.38 1010.36 1010.33 1010.30 1010.28 1010.27 1010.29 1010.36 1010.48 1010.63 1010.80 1010.97 1011.11 1011.20 1011.25 1011.26 1011.24 1011.24 1011.27 1011.36 1011.52 1011.75 1012.02 1012.32 1012.59 1012.80 1012.93 1012.95 1012.87 1012.69
1010.79 1011.18 1011.49 1011.67 1011.72 1011.65 1011.47 1011.24 1010.99 1010.77 1010.58 1010.45 1010.36 1010.29 1010.24 1010.20 1010.15 1010.11 1010.10 1010.12 1010.19 1010.31 1010.47 1010.64 1010.82 1010.97 1011.08 1011.13 1011.14 1011.12 1011.10 1011.11 1011.16 1011.28 1011.46 1011.69 1011.95 1012.21 1012.43 1012.58 1012.66 1012.64 1012.55
1010.64 1011.05 1011.38 1011.59 1011.68 1011.65 1011.52 1011.32 1011.10 1010.89 1010.71 1010.56 1010.45 1010.36 1010.28 1010.20 1010.13 1010.06 1010.02 1010.02 1010.06 1010.16 1010.30 1010.47 1010.66 1010.82 1010.95 1011.03 1011.06 1011.06 1011.04 1011.03 1011.06 1011.14 1011.27 1011.45 1011.67 1011.90 1012.12 1012.29 1012.41 1012.46 1012.44
1010.47 1010.89 1011.24 1011.50 1011.64 1011.66 1011.58 1011.44 1011.27 1011.09 1010.93 1010.79 1010.68 1010.58 1010.47 1010.36 1010.25 1010.15 1010.06 1010.01 1010.01 1010.07 1010.19 1010.35 1010.53 1010.71 1010.87 1010.99 1011.06 1011.08 1011.09 1011.09 1011.10 1011.15 1011.23 1011.37 1011.54 1011.73 1011.92 1012.10 1012.24 1012.34 1012.39
1010.30 1010.74 1011.11 1011.40 1011.59 1011.66 1011.65 1011.57 1011.45 1011.32 1011.20 1011.09 1010.99 1010.89 1010.77 1010.64 1010.50 1010.35 1010.21 1010.11 1010.06 1010.08 1010.16 1010.30 1010.47 1010.67 1010.85 1011.01 1011.12 1011.20 1011.23 1011.25 1011.26 1011.29 1011.34 1011.43 1011.55 1011.70 1011.86 1012.02 1012.17 1012.29 1012.38
1010.17 1010.61 1011.00 1011.32 1011.53 1011.65 1011.69 1011.66 1011.60 1011.53 1011.45 1011.38 1011.30 1011.21 1011.10 1010.97 1010.80 1010.62 1010.44 1010.30 1010.20 1010.16 1010.20 1010.31 1010.47 1010.67 1010.88 1011.07 1011.23 1011.34 1011.42 1011.46 1011.48 1011.50 1011.53 1011.58 1011.66 1011.76 1011.89 1012.02 1012.16 1012.28 1012.38
1010.09 1010.53 1010.92 1011.23 1011.47 1011.61 1011.68 1011.70 1011.68 1011.65 1011.61 1011.58 1011.54 1011.48 1011.39 1011.25 1011.09 1010.89 1010.69 1010.51 1010.36 1010.28 1010.28 1010.35 1010.50 1010.68 1010.90 1011.11 1011.30 1011.46 1011.56 1011.64 1011.67 1011.70 1011.72 1011.75 1011.79 1011.86 1011.95 1012.05 1012.16 1012.26 1012.35
1010.04 1010.46 1010.84 1011.15 1011.38 1011.53 1011.61 1011.64 1011.65 1011.64 1011.64 1011.64 1011.64 1011.61 1011.55 1011.44 1011.28 1011.10 1010.89 1010.69 1010.52 1010.40 1010.36 1010.40 1010.51 1010.68 1010.88 1011.10 1011.30 1011.47 1011.61 1011.71 1011.76 1011.80 1011.82 1011.84 1011.87 1011.92 1011.97 1012.04 1012.12 1012.20 1012.27
1009.99 1010.40 1010.76 1011.05 1011.27 1011.40 1011.47 1011.50 1011.51 1011.52 1011.53 1011.55 1011.57 1011.58 1011.55 1011.48 1011.36 1011.19 1011.00 1010.80 1010.62 1010.48 1010.41 1010.41 1010.49 1010.62 1010.80 1011.00 1011.20 1011.38 1011.52 1011.63 1011.71 1011.76 1011.79 1011.82 1011.85 1011.89 1011.93 1011.98 1012.02 1012.07 1012.11
1009.90 1010.31 1010.66 1010.94 1011.13 1011.24 1011.30 1011.31 1011.30 1011.30 1011.32 1011.35 1011.38 1011.42 1011.42 1011.39 1011.30 1011.17 1011.01 1010.83 1010.66 1010.52 1010.43 1010.41 1010.45 1010.55 1010.69 1010.86 1011.03 1011.19 1011.33 1011.44 1011.52 1011.59 1011.64 1011.68 1011.72 1011.77 1011.81 1011.84 1011.87 1011.89 1011.90
1009.76 1010.17 1010.52 1010.80 1010.98 1011.08 1011.12 1011.11 1011.08 1011.07 1011.07 1011.10 1011.14 1011.19 1011.22 1011.21 1011.17 1011.08 1010.96 1010.81 1010.66 1010.53 1010.44 1010.40 1010.42 1010.49 1010.59 1010.72 1010.86 1010.99 1011.11 1011.20 1011.29 1011.36 1011.42 1011.48 1011.54 1011.59 1011.64 1011.68 1011.69 1011.69 1011.67
1009.54 1009.98 1010.35 1010.64 1010.83 1010.93 1010.96 1010.95 1010.91 1010.88 1010.87 1010.88 1010.92 1010.96 1011.01 1011.02 1011.01 1010.95 1010.87 1010.76 1010.64 1010.54 1010.46 1010.43 1010.43 1010.48 1010.56 1010.65 1010.75 1010.85 1010.93 1011.01 1011.07 1011.14 1011.20 1011.27 1011.34 1011.40 1011.46 1011.51 1011.52 1011.51 1011.47
1009.27 1009.73 1010.14 1010.46 1010.68 1010.81 1010.85 1010.85 1010.81 1010.78 1010.76 1010.76 1010.78 1010.81 1010.85 1010.87 1010.86 1010.83 1010.77 1010.69 1010.61 1010.54 1010.50 1010.48 1010.50 1010.55 1010.61 1010.68 1010.75 1010.82 1010.87 1010.91 1010.95 1010.99 1011.03 1011.09 1011.16 1011.24 1011.31 1011.35 1011.38 1011.36 1011.32
1008.95 1009.44 1009.88 1010.24 1010.51 1010.68 1010.77 1010.80 1010.79 1010.76 1010.75 1010.74 1010.74 1010.75 1010.76 1010.76 1010.75 1010.71 1010.66 1010.61 1010.56 1010.53 1010.52 1010.54 1010.59 1010.66 1010.73 1010.80 1010.85 1010.89 1010.91 1010.91 1010.91 1010.92 1010.94 1010.97 1011.03 1011.10 1011.16 1011.22 1011.25 1011.24 1011.20
1008.60 1009.11 1009.58 1009.98 1010.29 1010.52 1010.67 1010.75 1010.78 1010.79 1010.79 1010.78 1010.77 1010.75 1010.72 1010.69 1010.64 1010.58 1010.52 1010.47 1010.44 1010.44 1010.48 1010.54 1010.64 1010.74 1010.84 1010.93 1010.99 1011.01 1011.01 1010.98 1010.94 1010.90 1010.87 1010.87 1010.89 1010.94 1011.00 1011.06 1011.10 1011.12 1011.10
1008.24 1008.74 1009.21 1009.63 1009.98 1010.26 1010.47 1010.62 1010.72 1010.78 1010.80 1010.81 1010.78 1010.74 1010.67 1010.59 1010.49 1010.39 1010.30 1010.23 1010.21 1010.23 1010.30 1010.41 1010.55 1010.70 1010.85 1010.97 1011.05 1011.08 1011.06 1011.00 1010.92 1010.83 1010.76 1010.71 1010.69 1010.72 1010.77 1010.83 1010.89 1010.93 1010.95
1007.90 1008.33 1008.76 1009.17 1009.54 1009.86 1010.13 1010.34 1010.51 1010.62 1010.70 1010.72 1010.70 1010.64 1010.53 1010.39 1010.24 1010.08 1009.95 1009.85 1009.81 1009.84 1009.92 1010.07 1010.26 1010.46 1010.66 1010.82 1010.93 1010.97 1010.95 1010.88 1010.76 1010.63 1010.51 1010.42 1010.37 1010.36 1010.40 1010.47 1010.56 1010.64 1010.71
Thickness
5749 5749 5747 5745 5742 5739 5736 5733 5732 5731 5729 5727 5726 5724 5722 5722 5722 5721 5719 5717 5716 5715 5713 5712 5711 5711 5710 5708 5707 5706 5705 5704 5704 5701 5699 5701 5704 5705 5705 5705 5705 5704 5704
5744 5742 5740 5739 5737 5734 5732 5729 5728 5726 5725 5723 5723 5722 5721 5719 5718 5717 5716 5715 5713 5712 5712 5709 5708 5708 5706 5705 5704 5702 5700 5700 5701 5696 5691 5689 5692 5697 5702 5701 5700 5700 5700
5739 5737 5736 5735 5734 5731 5729 5727 5724 5723 5722 5721 5720 5720 5719 5717 5715 5713 5712 5712 5711 5710 5709 5707 5706 5705 5703 5701 5700 5699 5696 5694 5695 5695 5690 5684 5682 5687 5693 5695 5696 5696 5696
5738 5735 5733 5731 5731 5729 5728 5725 5723 5721 5720 5719 5717 5715 5713 5711 5711 5711 5710 5709 5709 5708 5706 5704 5703 5701 5699 5698 5697 5696 5695 5692 5689 5691 5692 5690 5687 5681 5681 5686 5690 5691 5691
5736 5733 5731 5729 5729 5728 5726 5723 5721 5718 5718 5717 5715 5713 5711 5711 5711 5710 5707 5706 5705 5704 5703 5701 5699 5697 5695 5694 5693 5693 5691 5690 5688 5687 5687 5686 5684 5684 5677 5675 5679 5683 5686
5735 5731 5730 5728 5726 5725 5722 5719 5717 5715 5715 5715 5713 5711 5709 5708 5707 5705 5704 5703 5702 5701 5700 5698 5695 5694 5692 5691 5690 5689 5688 5686 5685 5684 5683 5681 5678 5676 5674 5671 5672 5674 5679
5731 5727 5725 5724 5722 5721 5719 5717 5714 5713 5713 5712 5711 5710 5708 5707 5705 5703 5702 5701 5699 5697 5696 5695 5692 5691 5689 5688 5687 5685 5684 5683 5681 5680 5679 5678 5676 5676 5673 5669 5668 5668 5673
5729 5725 5723 5721 5720 5719 5717 5714 5712 5711 5711 5710 5708 5708 5706 5705 5704 5702 5701 5699 5697 5695 5694 5692 5690 5688 5687 5686 5684 5682 5681 5679 5677 5676 5675 5673 5673 5673 5670 5667 5664 5661 5664
5726 5724 5722 5721 5719 5717 5715 5712 5710 5708 5708 5708 5707 5706 5705 5704 5702 5701 5699 5697 5695 5694 5691 5689 5686 5685 5683 5682 5680 5677 5676 5675 5674 5673 5671 5670 5669 5669 5668 5666 5663 5658 5655
5724 5723 5721 5719 5718 5716 5714 5711 5709 5707 5706 5706 5705 5704 5703 5702 5700 5699 5696 5694 5692 5690 5688 5685 5683 5682 5680 5678 5676 5674 5673 5671 5669 5668 5667 5665 5665 5664 5664 5663 5661 5659 5655
5723 5722 5720 5719 5717 5715 5712 5708 5707 5705 5704 5704 5702 5701 5700 5700 5698 5696 5694 5691 5689 5687 5684 5682 5680 5678 5676 5675 5672 5671 5669 5667 5665 5664 5663 5661 5661 5659 5660 5659 5658 5656 5654
5723 5722 5720 5718 5715 5713 5710 5707 5705 5704 5703 5702 5701 5699 5698 5697 5694 5692 5691 5688 5685 5683 5681 5679 5677 5675 5673 5671 5669 5667 5666 5664 5662 5661 5659 5657 5657 5655 5654 5653 5653 5652 5651
5721 5720 5717 5714 5712 5710 5708 5706 5705 5704 5703 5702 5699 5696 5694 5693 5691 5689 5687 5685 5683 5680 5678 5676 5674 5672 5670 5668 5667 5665 5663 5661 5659 5657 5655 5654 5652 5650 5649 5649 5648 5648 5648
5718 5716 5713 5711 5710 5708 5707 5705 5704 5704 5702 5700 5697 5693 5691 5690 5688 5687 5685 5682 5680 5678 5676 5674 5671 5670 5667 5665 5663 5662 5659 5658 5656 5655 5653 5652 5649 5647 5646 5645 5644 5643 5642
5716 5714 5711 5709 5708 5707 5705 5705 5704 5702 5700 5697 5694 5691 5690 5688 5686 5684 5682 5680 5678 5676 5673 5671 5669 5667 5664 5662 5659 5657 5657 5654 5652 5651 5650 5649 5647 5645 5643 5643 5640 5639 5637
5714 5713 5711 5709 5707 5706 5705 5704 5702 5701 5698 5695 5692 5691 5689 5686 5684 5682 5679 5677 5675 5672 5670 5668 5665 5663 5661 5658 5656 5654 5653 5651 5649 5647 5647 5646 5644 5643 5641 5640 5638 5636 5634
5714 5712 5709 5708 5707 5706 5705 5703 5701 5699 5696 5693 5691 5689 5686 5684 5682 5680 5677 5674 5672 5669 5667 5664 5662 5659 5657 5655 5653 5651 5650 5648 5647 5646 5644 5644 5644 5641 5639 5638 5636 5635 5633
5713 5711 5709 5708 5707 5707 5705 5704 5701 5698 5694 5691 5689 5687 5684 5682 5680 5677 5675 5672 5669 5666 5664 5662 5660 5657 5655 5653 5651 5650 5648 5647 5646 5645 5643 5642 5640 5639 5636 5635 5634 5632 5631
5712 5711 5709 5708 5706 5705 5703 5701 5698 5695 5692 5689 5687 5685 5683 5680 5677 5674 5672 5669 5667 5664 5662 5660 5658 5656 5654 5651 5649 5647 5646 5645 5645 5644 5643 5641 5638 5635 5632 5631 5629 5628 5627
5711 5709 5708 5706 5703 5702 5701 5697 5694 5692 5689 5687 5685 5684 5681 5678 5674 5672 5670 5668 5665 5663 5661 5659 5658 5655 5653 5649 5647 5644 5645 5644 5643 5642 5641 5638 5635 5632 5629 5627 5625 5623 5623
5708 5707 5705 5703 5701 5701 5698 5693 5691 5689 5688 5687 5685 5682 5679 5676 5673 5670 5668 5666 5664 5662 5660 5658 5656 5654 5652 5649 5645 5643 5642 5641 5640 5640 5638 5636 5632 5629 5626 5624 5622 5621 5619
5704 5703 5701 5699 5699 5698 5695 5691 5688 5689 5687 5685 5682 5679 5676 5674 5671 5668 5665 5664 5661 5659 5657 5655 5654 5653 5651 5648 5645 5642 5639 5638 5636 5635 5635 5633 5630 5627 5624 5622 5621 5619 5616
5700 5700 5698 5696 5696 5695 5693 5688 5687 5687 5685 5681 5678 5676 5673 5671 5669 5666 5663 5661 5659 5657 5655 5654 5651 5650 5649 5646 5643 5640 5637 5634 5632 5633 5631 5629 5626 5624 5622 5621 5619 5616 5614
5696 5695 5694 5692 5690 5691 5690 5688 5687 5685 5681 5678 5675 5673 5670 5667 5666 5663 5661 5659 5656 5654 5653 5651 5649 5647 5646 5644 5641 5639 5635 5632 5630 5629 5628 5627 5625 5623 5621 5620 5618 5615 5614
5691 5690 5689 5687 5687 5688 5687 5686 5685 5682 5678 5675 5673 5671 5668 5665 5663 5660 5658 5656 5654 5652 5649 5648 5647 5644 5642 5639 5637 5636 5634 5632 5630 5627 5627 5626 5625 5624 5622 5621 5619 5618 5615
5686 5685 5685 5684 5684 5685 5684 5683 5682 5679 5675 5672 5670 5669 5667 5665 5662 5659 5656 5654 5652 5650 5648 5646 5644 5642 5640 5637 5635 5632 5630 5629 5626 5625 5625 5625 5625 5624 5623 5621 5619 5618 5615